Location: Recife
(8.0585°S, 34.8848°W)
Time: 12:04:05
(UTC-03:00)

Tiros 1 - Pass Details

Date: 17 April 2026
Orbit: 618 x 648 km, 48.4° (Epoch: 11 May)

Event Time Altitude Azimuth Distance (km) Brightness Sun altitude
Rises 20:05:31 0° 281° (W) 2,950 11.4 -42.2°
Enters shadow 20:08:06 - 263° (W) 2,244 10.6 -42.9°
Reaches altitude 10° 20:09:06 10° 253° (WSW) 2,044 - -43.1°
Maximum altitude 20:11:15 13° 226° (SW) 1,852 - -43.7°
Drops below altitude 10° 20:13:26 10° 198° (SSW) 2,047 - -44.2°
Sets 20:17:02 0° 170° (S) 2,957 - -45.1°
